GW3994 Weather Reports


time (UTC)temp
F
wind
direction
speed
knots
gust
knots
rain 1hr
in
rain 24hr
in
rain mn
in
humidity
%
barometer
mb
20260510203317 0 30 2.6 2.6 0.00 0.00 0.00 1019.5
20260510202816 0 248 1.7 1.7 0.00 0.00 0.00 1019.5
20260510202312 0 10 0.0 0.0 0.00 0.00 0.00 1019.5
20260510201809 0 62 1.7 1.7 0.00 0.00 0.00 1019.5
20260510201306 0 89 2.6 2.6 0.00 0.00 0.00 1019.5
20260510200803 0 55 3.5 3.5 0.00 0.00 0.00 1019.5
20260510200301 0 61 1.7 1.7 0.00 0.00 0.00 1019.5
20260510195756 0 60 3.5 3.5 0.00 0.00 0.00 1019.9
20260510195253 0 60 2.6 3.5 0.00 0.00 0.00 1019.9
20260510194753 0 10 2.6 2.6 0.00 0.00 0.00 1019.9
20260510194250 0 37 1.7 1.7 0.00 0.00 0.00 1019.9
20260510193745 0 0 3.5 3.5 0.00 0.00 0.00 1019.9
20260510193240 0 45 0.9 0.9 0.00 0.00 0.00 1019.9
20260510192736 0 331 2.6 3.5 0.00 0.00 0.00 1019.5
20260510192231 0 90 3.5 4.3 0.00 0.00 0.00 1019.5
20260510191727 0 270 1.7 1.7 0.00 0.00 0.00 1019.5
20260510191218 0 6 4.3 4.3 0.00 0.00 0.00 1019.9
20260510190716 0 352 2.6 3.5 0.00 0.00 0.00 1019.9
20260510190213 0 72 2.6 2.6 0.00 0.00 0.00 1019.9
20260510185710 0 66 1.7 1.7 0.00 0.00 0.00 1019.5
20260510185208 0 72 4.3 4.3 0.00 0.00 0.00 1019.5
20260510184704 0 305 3.5 3.5 0.00 0.00 0.00 1019.5
20260510184200 0 12 1.7 1.7 0.00 0.00 0.00 1019.5
20260510183655 0 191 3.5 3.5 0.00 0.00 0.00 1019.5
20260510183150 0 18 5.2 5.2 0.00 0.00 0.00 1019.5
20260510182647 0 60 6.1 7.8 0.00 0.00 0.00 1019.5
20260510182143 0 66 6.1 7.0 0.00 0.00 0.00 1019.5
20260510181640 0 252 2.6 3.5 0.00 0.00 0.00 1019.5
20260510181137 0 336 3.5 4.3 0.00 0.00 0.00 1019.2
20260510180633 0 36 3.5 3.5 0.00 0.00 0.00 1019.2
20260510180131 0 336 5.2 5.2 0.00 0.00 0.00 1019.2
20260510175626 0 36 5.2 6.1 0.00 0.00 0.00 1019.2
20260510175122 0 285 5.2 5.2 0.00 0.00 0.00 1019.2
20260510174620 0 342 0.0 0.0 0.00 0.00 0.00 1019.2
20260510174118 0 54 3.5 3.5 0.00 0.00 0.00 1019.5
20260510173613 0 55 5.2 5.2 0.00 0.00 0.00 1019.5
20260510173110 0 316 2.6 3.5 0.00 0.00 0.00 1019.5
20260510172605 0 38 5.2 6.1 0.00 0.00 0.00 1019.5
20260510172101 0 12 3.5 4.3 0.00 0.00 0.00 1019.5
20260510171558 0 351 5.2 6.1 0.00 0.00 0.00 1019.5
20260510171055 0 324 1.7 1.7 0.00 0.00 0.00 1019.5
20260510170552 0 22 3.5 3.5 0.00 0.00 0.00 1019.5
20260510170049 0 348 3.5 3.5 0.00 0.00 0.00 1019.2
20260510165544 0 348 6.1 7.8 0.00 0.00 0.00 1019.2
20260510165040 0 316 6.1 7.0 0.00 0.00 0.00 1019.2
20260510164538 0 316 4.3 5.2 0.00 0.00 0.00 1019.5
20260510164034 0 303 3.5 3.5 0.00 0.00 0.00 1019.5
20260510163524 0 288 4.3 4.3 0.00 0.00 0.00 1019.5
20260510163020 0 318 2.6 3.5 0.00 0.00 0.00 1019.2
20260510162516 0 6 2.6 2.6 0.00 0.00 0.00 1019.2
20260510162012 0 10 2.6 2.6 0.00 0.00 0.00 1019.2
20260510161508 0 42 3.5 3.5 0.00 0.00 0.00 1019.2
20260510161005 0 78 3.5 3.5 0.00 0.00 0.00 1019.2
20260510160502 0 108 7.0 8.7 0.00 0.00 0.00 1019.2
20260510155955 0 12 3.5 4.3 0.00 0.00 0.00 1019.2
20260510155453 0 78 1.7 1.7 0.00 0.00 0.00 1019.2
20260510154949 0 68 2.6 2.6 0.00 0.00 0.00 1019.2
20260510154444 0 94 5.2 5.2 0.00 0.00 0.00 1018.8
20260510153943 0 30 2.6 2.6 0.00 0.00 0.00 1018.8
20260510153440 0 336 4.3 4.3 0.00 0.00 0.00 1018.8
20260510152937 0 60 4.3 5.2 0.00 0.00 0.00 1018.8
20260510152435 0 57 1.7 1.7 0.00 0.00 0.00 1018.8
20260510151931 0 60 5.2 5.2 0.00 0.00 0.00 1018.8
20260510151429 0 318 5.2 5.2 0.00 0.00 0.00 1019.2
20260510150925 0 57 4.3 4.3 0.00 0.00 0.00 1019.2
20260510150420 0 336 2.6 2.6 0.00 0.00 0.00 1019.2
20260510145916 0 316 4.3 5.2 0.00 0.00 0.00 1018.5
20260510145412 0 44 6.1 7.0 0.00 0.00 0.00 1018.5
20260510144909 0 30 5.2 5.2 0.00 0.00 0.00 1018.5
20260510144406 0 336 4.3 4.3 0.00 0.00 0.00 1018.2
20260510143901 0 0 3.5 3.5 0.00 0.00 0.00 1018.2
20260510143357 0 0 5.2 5.2 0.00 0.00 0.00 1018.2
20260510142854 0 0 5.2 6.1 0.00 0.00 0.00 1018.5
20260510142350 0 0 3.5 3.5 0.00 0.00 0.00 1018.5
20260510141847 0 0 5.2 5.2 0.00 0.00 0.00 1018.5
20260510141345 0 0 4.3 5.2 0.00 0.00 0.00 1018.5
20260510140842 0 0 5.2 5.2 0.00 0.00 0.00 1018.5
20260510140338 0 0 2.6 2.6 0.00 0.00 0.00 1018.5
20260510135831 0 0 3.5 4.3 0.00 0.00 0.00 1018.5
20260510135327 0 0 2.6 3.5 0.00 0.00 0.00 1018.5
20260510134825 0 0 3.5 3.5 0.00 0.00 0.00 1018.5
20260510134322 0 0 2.6 3.5 0.00 0.00 0.00 1018.5
20260510133818 0 0 5.2 6.1 0.00 0.00 0.00 1018.5
20260510133314 0 0 5.2 5.2 0.00 0.00 0.00 1018.5
20260510132810 0 0 5.2 5.2 0.00 0.00 0.00 1018.2
20260510132308 0 0 3.5 3.5 0.00 0.00 0.00 1018.2
20260510131804 0 0 4.3 5.2 0.00 0.00 0.00 1018.2
20260510131303 0 0 3.5 3.5 0.00 0.00 0.00 1017.7
20260510130759 0 0 8.7 8.7 0.00 0.00 0.00 1017.7
20260510130256 0 0 4.3 4.3 0.00 0.00 0.00 1017.7
20260510125752 0 0 5.2 5.2 0.00 0.00 0.00 1017.7
20260510125248 0 0.0 0.0 0.00 0.00 0.00 1006.7
20260510124744 0 0.0 0.0 0.00 0.00 0.00 1006.7
20260510124242 0 0.0 0.0 0.00 0.00 0.00 1006.7
20260510123731 0 0.0 0.0 0.00 0.00 0.00 1006.7
20260510123227 0 0.0 0.0 0.00 0.00 0.00 1006.7
20260510122723 0 0.0 0.0 0.00 0.00 0.00 1006.7
20260510122220 0 0.0 0.0 0.00 0.00 0.00 1006.7
20260510121716 0 0.0 0.0 0.00 0.00 0.00 1006.7
20260510121214 0 0.0 0.0 0.00 0.00 0.00 1006.7
20260510120711 0 0.0 0.0 0.00 0.00 0.00 1006.7
20260510120208 0 0.0 0.0 0.00 0.00 0.00 1006.7
20260510115703 0 0.0 0.0 0.00 0.00 0.00 1006.7
20260510115202 0 0.0 0.0 0.00 0.00 0.00 1006.7
20260510114657 0 0.0 0.0 0.00 0.00 0.00 1006.7
20260510114154 0 0.0 0.0 0.00 0.00 0.00 1006.7
20260510113648 0 0.0 0.0 0.00 0.00 0.00 1006.7
20260510113146 0 0.0 0.0 0.00 0.00 0.00 1006.7
20260510112643 0 0.0 0.0 0.00 0.00 0.00 1006.7
20260510112140 0 0.0 0.0 0.00 0.00 0.00 1006.7
20260510111636 0 0.0 0.0 0.00 0.00 0.00 1006.7
20260510111131 0 0.0 0.0 0.00 0.00 0.00 1006.7
20260510110627 0 0.0 0.0 0.00 0.00 0.00 1006.7
20260510110125 0 0.0 0.0 0.00 0.00 0.00 1006.7
20260510105620 0 0.0 0.0 0.00 0.00 0.00 1006.7
20260510105115 0 0.0 0.0 0.00 0.00 0.00 1006.7
20260510104612 0 0.0 0.0 0.00 0.00 0.00 1006.7
20260510104109 0 0.0 0.0 0.00 0.00 0.00 1006.7
20260510103606 0 0.0 0.0 0.00 0.00 0.00 1006.7
20260510103101 0 0.0 0.0 0.00 0.00 0.00 1006.7
20260510102557 0 0.0 0.0 0.00 0.00 0.00 1006.7
20260510102053 0 0.0 0.0 0.00 0.00 0.00 1006.7
20260510101551 0 0.0 0.0 0.00 0.00 0.00 1006.7
20260510101050 0 0.0 0.0 0.00 0.00 0.00 1006.7
20260510100545 0 0.0 0.0 0.00 0.00 0.00 1006.7
20260510100043 0 0.0 0.0 0.00 0.00 0.00 1006.7
20260510095538 0 0.0 0.0 0.00 0.00 0.00 1006.7
20260510095038 0 0.0 0.0 0.00 0.00 0.00 1006.7
20260510094533 0 0.0 0.0 0.00 0.00 0.00 1006.7
20260510094028 0 0.0 0.0 0.00 0.00 0.00 1006.7
20260510093524 0 0.0 0.0 0.00 0.00 0.00 1006.7
20260510093021 0 0.0 0.0 0.00 0.00 0.00 1006.7
20260510092518 0 0.0 0.0 0.00 0.00 0.00 1006.7
20260510092017 0 0.0 0.0 0.00 0.00 0.00 1006.7
20260510091515 0 0.0 0.0 0.00 0.00 0.00 1006.7
20260510091010 0 0.0 0.0 0.00 0.00 0.00 1006.7
20260510090508 0 0.0 0.0 0.00 0.00 0.00 1006.7
20260510090003 0 0.0 0.0 0.00 0.00 0.00 1006.7
20260510085458 0 0.0 0.0 0.00 0.00 0.00 1006.7
20260510084954 0 0.0 0.0 0.00 0.00 0.00 1006.7
20260510084452 0 0.0 0.0 0.00 0.00 0.00 1006.7
20260510083948 0 0.0 0.0 0.00 0.00 0.00 1006.7
20260510083445 0 0.0 0.0 0.00 0.00 0.00 1006.7
20260510082940 0 0.0 0.0 0.00 0.00 0.00 1006.7
20260510082438 0 0.0 0.0 0.00 0.00 0.00 1006.7
20260510081937 0 0.0 0.0 0.00 0.00 0.00 1006.7
20260510081433 0 0.0 0.0 0.00 0.00 0.00 1006.7
20260510080930 0 0.0 0.0 0.00 0.00 0.00 1006.7
20260510080428 0 0.0 0.0 0.00 0.00 0.00 1006.7
20260510075925 0 0.0 0.0 0.00 0.00 0.00 1006.7
20260510075424 0 0.0 0.0 0.00 0.00 0.00 1006.7
20260510074920 0 0.0 0.0 0.00 0.00 0.00 1006.7
20260510074417 0 0.0 0.0 0.00 0.00 0.00 1006.7
20260510073913 0 0.0 0.0 0.00 0.00 0.00 1006.7
20260510073409 0 0.0 0.0 0.00 0.00 0.00 1006.7
20260510072905 0 0.0 0.0 0.00 0.00 0.00 1006.7
20260510072403 0 0.0 0.0 0.00 0.00 0.00 1006.7
20260510071858 0 0.0 0.0 0.00 0.00 0.00 1006.7
20260510071355 0 0.0 0.0 0.00 0.00 0.00 1006.7
20260510070853 0 0.0 0.0 0.00 0.00 0.00 1006.7
20260510070350 0 0.0 0.0 0.00 0.00 0.00 1006.7
20260510065850 0 0.0 0.0 0.00 0.00 0.00 1006.7
20260510065347 0 0.0 0.0 0.00 0.00 0.00 1006.7
20260510064843 0 0.0 0.0 0.00 0.00 0.00 1006.7
20260510064341 0 0.0 0.0 0.00 0.00 0.00 1006.7
20260510063837 0 0.0 0.0 0.00 0.00 0.00 1006.7
20260510063334 0 0.0 0.0 0.00 0.00 0.00 1006.7
20260510062831 0 0.0 0.0 0.00 0.00 0.00 1006.7
20260510062326 0 0.0 0.0 0.00 0.00 0.00 1006.7
20260510061821 0 0.0 0.0 0.00 0.00 0.00 1006.7
20260510061319 0 0.0 0.0 0.00 0.00 0.00 1006.7
20260510060815 0 0.0 0.0 0.00 0.00 0.00 1006.7
20260510060307 0 0.0 0.0 0.00 0.00 0.00 1006.7
20260510055804 0 0.0 0.0 0.00 0.00 0.00 1006.7
20260510055306 0 0.0 0.0 0.00 0.00 0.00 1006.7
20260510054802 0 0.0 0.0 0.00 0.00 0.00 1006.7
20260510054258 0 0.0 0.0 0.00 0.00 0.00 1006.7
20260510053758 0 0.0 0.0 0.00 0.00 0.00 1006.7
20260510053253 0 0.0 0.0 0.00 0.00 0.00 1006.7
20260510052750 0 0.0 0.0 0.00 0.00 0.00 1006.7
20260510052240 0 0.0 0.0 0.00 0.00 0.00 1006.7
20260510051737 0 0.0 0.0 0.00 0.00 0.00 1006.7
20260510051233 0 0.0 0.0 0.00 0.00 0.00 1006.7
20260510050730 0 0.0 0.0 0.00 0.00 0.00 1006.7
20260510050227 0 0.0 0.0 0.00 0.00 0.00 1006.7
20260510045723 0 0.0 0.0 0.00 0.00 0.00 1006.7
20260510045221 0 0.0 0.0 0.00 0.00 0.00 1006.7
20260510044717 0 0.0 0.0 0.00 0.00 0.00 1006.7
20260510044216 0 0.0 0.0 0.00 0.00 0.00 1006.7
20260510043710 0 0.0 0.0 0.00 0.00 0.00 1006.7
20260510043207 0 0.0 0.0 0.00 0.00 0.00 1006.7
20260510042704 0 0.0 0.0 0.00 0.00 0.00 1006.7
20260510042201 0 0.0 0.0 0.00 0.00 0.00 1006.7
20260510041657 0 0.0 0.0 0.00 0.00 0.00 1006.7
20260510041155 0 0.0 0.0 0.00 0.00 0.00 1006.7
20260510040652 0 0.0 0.0 0.00 0.00 0.00 1006.7
20260510040148 0 0.0 0.0 0.00 0.00 0.00 1006.7
20260510035643 0 0.0 0.0 0.00 0.00 0.00 1006.7
20260510035138 0 0.0 0.0 0.00 0.00 0.00 1006.7
20260510034636 0 0.0 0.0 0.00 0.00 0.00 1006.7
20260510034133 0 0.0 0.0 0.00 0.00 0.00 1006.7
20260510033629 0 0.0 0.0 0.00 0.00 0.00 1006.7
20260510033128 0 0.0 0.0 0.00 0.00 0.00 1006.7
20260510032623 0 0.0 0.0 0.00 0.00 0.00 1006.7
20260510032119 0 0.0 0.0 0.00 0.00 0.00 1006.7
20260510031614 0 0.0 0.0 0.00 0.00 0.00 1006.7
20260510031111 0 0.0 0.0 0.00 0.00 0.00 1006.7
20260510030605 0 0.0 0.0 0.00 0.00 0.00 1006.7
20260510030103 0 0.0 0.0 0.00 0.00 0.00 1006.7
20260510025600 0 0.0 0.0 0.00 0.00 0.00 1006.7
20260510025058 0 0.0 0.0 0.00 0.00 0.00 1006.7
20260510024554 0 0.0 0.0 0.00 0.00 0.00 1006.7
20260510024050 0 0.0 0.0 0.00 0.00 0.00 1006.7
20260510023546 0 0.0 0.0 0.00 0.00 0.00 1006.7
20260510023044 0 0.0 0.0 0.00 0.00 0.00 1006.7
20260510022543 0 0.0 0.0 0.00 0.00 0.00 1006.7
20260510022037 0 0.0 0.0 0.00 0.00 0.00 1006.7
20260510021534 0 0.0 0.0 0.00 0.00 0.00 1006.7
20260510021032 0 0.0 0.0 0.00 0.00 0.00 1006.7
20260510020526 0 0.0 0.0 0.00 0.00 0.00 1006.7
20260510020022 0 0.0 0.0 0.00 0.00 0.00 1006.7
20260510015518 0 0.0 0.0 0.00 0.00 0.00 1006.7
20260510015014 0 0.0 0.0 0.00 0.00 0.00 1006.7
20260510014511 0 0.0 0.0 0.00 0.00 0.00 1006.7
20260510014008 0 0.0 0.0 0.00 0.00 0.00 1006.7
20260510013502 0 0.0 0.0 0.00 0.00 0.00 1006.7
20260510012958 0 0.0 0.0 0.00 0.00 0.00 1006.7
20260510012453 0 0.0 0.0 0.00 0.00 0.00 1006.7
20260510011948 0 0.0 0.0 0.00 0.00 0.00 1006.7
20260510011444 0 0.0 0.0 0.00 0.00 0.00 1006.7
20260510010940 0 0.0 0.0 0.00 0.00 0.00 1006.7
20260510010437 0 0.0 0.0 0.00 0.00 0.00 1006.7
20260510005934 0 0.0 0.0 0.00 0.00 0.00 1006.7
20260510005430 0 0.0 0.0 0.00 0.00 0.00 1006.7
20260510004927 0 0.0 0.0 0.00 0.00 0.00 1006.7
20260510004425 0 0.0 0.0 0.00 0.00 0.00 1006.7
20260510003923 0 0.0 0.0 0.00 0.00 0.00 1006.7
20260510003419 0 0.0 0.0 0.00 0.00 0.00 1006.7
20260510002918 0 0.0 0.0 0.00 0.00 0.00 1006.7
20260510002416 0 0.0 0.0 0.00 0.00 0.00 1006.7
20260510001912 0 0.0 0.0 0.00 0.00 0.00 1006.7
20260510001410 0 0.0 0.0 0.00 0.00 0.00 1006.7
20260510000907 0 0.0 0.0 0.00 0.00 0.00 1006.7
20260510000404 0 0.0 0.0 0.00 0.00 0.00 1006.7
20260509235900 0 0.0 0.0 0.00 0.00 0.00 1006.7
20260509235357 0 0.0 0.0 0.00 0.00 0.00 1006.7
20260509234852 0 0.0 0.0 0.00 0.00 0.00 1006.7
20260509234350 0 0.0 0.0 0.00 0.00 0.00 1006.7
20260509233848 0 0.0 0.0 0.00 0.00 0.00 1006.7
20260509233345 0 0.0 0.0 0.00 0.00 0.00 1006.7
20260509232841 0 0.0 0.0 0.00 0.00 0.00 1006.7
20260509232339 0 0.0 0.0 0.00 0.00 0.00 1006.7
20260509231835 0 0.0 0.0 0.00 0.00 0.00 1006.7
20260509231332 0 0.0 0.0 0.00 0.00 0.00 1006.7
20260509230829 0 0.0 0.0 0.00 0.00 0.00 1006.7
20260509230326 0 0.0 0.0 0.00 0.00 0.00 1006.7
20260509225821 0 0.0 0.0 0.00 0.00 0.00 1006.7
20260509225319 0 0.0 0.0 0.00 0.00 0.00 1006.7
20260509224814 0 0.0 0.0 0.00 0.00 0.00 1006.7
20260509224311 0 0.0 0.0 0.00 0.00 0.00 1006.7
20260509223807 0 270 8.7 9.6 0.09 0.09 0.09 1005.7
20260509223304 0 270 8.7 9.6 0.09 0.09 0.09 1005.7
20260509222801 0 270 8.7 9.6 0.09 0.09 0.09 1005.7
20260509222256 0 270 4.3 4.3 0.07 0.07 0.07 1005.7
20260509221753 0 270 5.2 6.1 0.00 0.00 0.00 1005.7
20260509221250 0 270 6.1 6.1 0.00 0.00 0.00 1005.3
20260509220745 0 204 6.1 6.1 0.00 0.00 0.00 1005.3
20260509220242 0 259 5.2 5.2 0.00 0.00 0.00 1005.3
20260509215737 0 162 6.1 7.0 0.00 0.00 0.00 1005.0
20260509215234 0 251 7.8 8.7 0.00 0.00 0.00 1005.0
20260509214731 0 246 9.6 11.3 0.00 0.00 0.00 1005.0
20260509214228 0 228 5.2 6.1 0.00 0.00 0.00 1004.7
20260509213725 0 258 7.0 8.7 0.00 0.00 0.00 1004.7
20260509213221 0 337 6.1 7.8 0.00 0.00 0.00 1004.7
20260509212718 0 278 4.3 4.3 0.00 0.00 0.00 1004.7
20260509212215 0 169 7.8 9.6 0.00 0.00 0.00 1004.7
20260509211711 0 189 5.2 5.2 0.00 0.00 0.00 1004.7
20260509211207 0 240 2.6 3.5 0.00 0.00 0.00 1005.0
20260509210703 0 264 7.0 8.7 0.00 0.00 0.00 1005.0
20260509210156 0 131 5.2 6.1 0.00 0.00 0.00 1005.0
20260509205651 0 228 8.7 11.3 0.00 0.00 0.00 1005.3
20260509205150 0 206 8.7 8.7 0.00 0.00 0.00 1005.3
20260509204646 0 175 5.2 5.2 0.00 0.00 0.00 1005.3
20260509204143 0 282 8.7 8.7 0.00 0.00 0.00 1005.3
20260509203639 0 182 9.6 11.3 0.00 0.00 0.00 1005.3